Weather in Klyuchevsk

Russia / Sverdlovsk Oblast     57°07′02″N   60°56′22″E
temp.,
°C
wind,
m/s
gust,
m/s
humid.,
%
clouds,
%
prec.,
mm/h
press.,
hPa
HPBL,
m
11 may, tue
tue1123:00+11sse234816 0.0 102642
02:00+10s22505 0.0 102622
05:00+8ssw22544 0.0 102715
08:00+14ssw233988 0.0 1027292
11:00+18ssw2227100 0.0 10271107
14:00+21ssw2222100 0.0 10271433
17:00+21sw222120 0.0 10261433
20:00+18ssw22345 0.0 102613
12 may, wed
wed1223:00+14w224432 0.0 102728
02:00+15nnw276659 0.0 1027193
05:00+11nnw258481 0.0 1029110
08:00+15nnw355447 0.0 1029402
11:00+19nnw34331 0.0 10291181
14:00+22nnw342849 0.0 10281681
17:00+23n343088 0.0 10272059
20:00+19nne1145100 0.0 102711
13 may, thu
thu1323:00+16w225399 0.0 102725
02:00+13nw236771 0.0 102844
05:00+12nw237215 0.0 102860
08:00+18nw355184 0.0 1028331
11:00+23nw463730 0.0 10271592
14:00+25nnw45285 0.0 10262021
17:00+26nnw35266 0.0 10262257
20:00+21nnw11415 0.0 102511
14 may, fri
fri1423:00+17wnw11525 0.0 102611
02:00+15nw11615 0.0 102711
05:00+14wsw22640 0.0 102711
08:00+20wsw24475 0.0 1026247
11:00+25w46335 0.0 10262044
14:00+27w46252 0.0 10242696
17:00+27w56220 0.0 10232751
20:00+22wnw223812 0.0 102314
15 may, sat
sat1523:00+18wnw26525 0.0 102391
02:00+16w27575 0.0 1023122
05:00+15wsw3763100 0.0 1024130
08:00+21w484649 0.0 1023356
11:00+26w5833100 0.0 10221500
14:00+29w582462 0.0 10202759
17:00+28w682411 0.0 10193097
20:00+24w410355 0.0 1019416